User: anonymous   Login
Location: Songkhla
(7.2000°N, 100.6000°E)
Time: 09:51:23
(UTC+07:00)
Language:

SJ-12 - Orbit

View from above orbital plane
View from above orbital plane
View from above satellite
View from above satellite

Ground track
Ground track

The orbit is defined by the following mean orbital elements,

1 36596U          26158.82344117 +.00000000 +00000-0 +28023-3 0 00002
2 36596  97.7623 176.2940 0008100 122.4026 237.7991 15.16639107    07
Epoch (UTC): 07 June 2026 19:45:45
Eccentricity: 0.0008100
inclination: 97.7623°
perigee height: 510 km
apogee height: 522 km
right ascension of ascending node: 176.2940°
argument of perigee: 122.4026°
revolutions per day: 15.16639107
mean anomaly at epoch: 237.7991°

The dashed part of the orbit path shows where the satellite is in the earth's shadow,  

DLR